Regional Weather Roundup
Issued by NWS Charleston, SC

Current Version | Previous Version | Graphics & Text | Print | Product List | Glossary On
Versions: 1 2 3 4 5 6 7 8 9 10 11 12 13 14 15 16 17 18 19 20 21 22 23 24 25 26 27 28 29 30 31 32 33 34 35 36 37 38 39 40 41 42 43 44 45 46 47 48 49 50
000
ASUS42 KCHS 190227
RWRCHS

Regional Weather Roundup
National Weather Service Charleston SC
1000 PM EDT WED APR 18 2018

NOTE: "fair" indicates few or no clouds below 12,000 feet with no
significant weather and/or obstructions to visibility.

Not all stations are quality controlled. Use data with caution,
especially dewpoint observations.

SCZ027-030-031-034>040-042>050-190300-
...Southeast South Carolina...

CITY           SKY/WX    TMP DP  RH WIND       PRES   REMARKS
N Charleston   FAIR      65  54  67 S10       29.92F
Waterfront Prk   N/A     68  56  65 SW12      29.78S
Mount Pleasant FAIR      70  54  56 S13       29.93S
Johns Island   FAIR      68  57  68 SW15G22   29.94S
Pinopolis        N/A     70  55  60 S6        29.80F
Moncks Corner  FAIR      66  52  59 SW9       29.90S
Summerville    FAIR      64  55  72 S6        29.92S
Beaufort MCAS  FAIR      69  60  73 S7        29.94S
Beaufort Arpt  FAIR      66  57  72 S6        29.94S
Hilton Head Is FAIR      70  57  64 S14G21    29.96S
Walterboro     FAIR      66  55  68 CALM      29.93S
Allendale      FAIR      73  48  40 CALM      29.91R

...Southern Midlands and Pee Dee...

CITY           SKY/WX    TMP DP  RH WIND       PRES   REMARKS
Georgetown     FAIR      64  52  63 SW13      29.91S
Kingstree      FAIR      70  52  52 S6        29.87S
Orangeburg     FAIR      70  48  45 SW10      29.89R
Barnwell       FAIR      73  48  40 SW9       29.90S
Aiken          FAIR      73  50  43 SW12G21   29.93R
Manning        FAIR      66  52  59 S8        29.88R
Columbia       FAIR      78  49  35 SW15G21   29.86R
Sumter         FAIR      75  46  34 SW14      29.83R
Florence       FAIR      76  47  35 SW16      29.83R
Myrtle Beach   FAIR      68  53  58 S10       29.88F
N Myrtle Beach FAIR      65  56  72 SW23G31   29.86S

$$

GAZ063-065-086>088-099>101-113>116-118-119-134>141-150-190300-
...Southeast Georgia...

CITY           SKY/WX    TMP DP  RH WIND       PRES   REMARKS
Savannah Arpt  FAIR      76  45  33 SW14      29.96S
Hunter AAF     FAIR      71  54  55 S7        29.94S
Fort Stewart   FAIR      75  39  26 SW8       29.95R
Statesboro     FAIR      74  44  34 S8        29.94R
Sylvania       FAIR      72  54  53 SW3       29.94R
Claxton        FAIR      77  44  30 S8G17     29.95S

...CSRA, Central and far Southeast Georgia...

CITY           SKY/WX    TMP DP  RH WIND       PRES   REMARKS
Thomson        FAIR      71  52  51 W7        29.95R
Augusta-Bush   FAIR      74  51  44 SW7       29.89R
Augusta-Daniel FAIR      77  51  40 SW10      29.90R
Swainsboro     FAIR      75  50  41 W7        29.95R
Vidalia        FAIR      73  54  49 SW12      29.96R
Eastman        FAIR      76  27  16 SW7       29.97S
Hazlehurst     FAIR      75  48  38 SW12G17   29.96S
Alma           FAIR      74  38  27 S8        29.98F
Waycross       FAIR      71  31  22 SW10      30.02R
Jesup          NOT AVBL
Baxley         FAIR      72  37  28 W9        29.98R
Brunswick      FAIR      73  37  27 SW14      30.01S
Saint Simons   FAIR      73  49  42 SW10      30.01R

$$

SCZ027-028-034-036>038-045-046-048>050-GAZ119-141-190300-
...Lake and Supplemental Coastal Observations...

STATION/POSITION TIME  TEMP    WIND        PRES    WAVE   SWELL
                       AIR SEA DIR/SP/G            HT/PER HT/PER/DIR
                 (UTC) (F)     (DEG/KT/KT) (MB)    (FT/S) (FT/S/D)
Winyah Bay       0145   68     220/ 15     1012.0S
Lake Murray      0120   75     220/ 12/ 14 1010.2
ACE Basin NERRS  0145   68     350/  1       N/A
Fort Pulaski     0200   68 65  210/  8/ 12 1014.9
Sapelo Island    0200   67     210/  8     1016.0

$$

ANZ835-935-AMZ111-154-330-350-352-354-370-450-454-472-190300-
...C-MAN and Buoy Observations...

STATION/POSITION TIME  TEMP    WIND        PRES    WAVE   SWELL
                       AIR SEA DIR/SP/G            HT/PER HT/PER/DIR
                 (UTC) (F)     (DEG/KT/KT) (MB)    (FT/S) (FT/S/D)
Buoy 41004       0210   71 68  210/ 19/ 23 1013.9
Buoy 41008       0150   68 65  200/ 16/ 19 1015.4R   3/ 4   2/120/ 9
Folly Beach CMAN 0200   67     210/ 19/ 23 1014.1F
Capers Nearshore 0208   67 63  250/ 14/ 17 1013.6F
Fripp Nearshore  0208   67 64  210/ 17/ 25 1013.4F


STATION/POSITION TIME  TEMP    WIND        PRES    WAVE   SWELL
                       AIR SEA DIR/SP/G            HT/PER HT/PER/DIR
                 (UTC) (F)     (DEG/KT/KT) (MB)    (FT/S) (FT/S/D)
5E St. Marys GA  0200      66                N/A     2/10
Frying Pan Buoy  0210   71 67  210/ 23/ 29 1012.0
Buoy 41025       0210   69 64  220/ 23/ 29 1009.9
Cape Lookout NC  0200          230/ 12/ 16 1010.6R
Buoy 41002       0210   72 72  220/ 17/ 23 1016.6
Buoy 41010       0210   74 74  190/ 10/ 12 1020.0
St Augustine FL  0200   71 68  190/  8/  9 1018.2S


$$



USA.gov is the U.S. government's official web portal to all federal, state and local government web resources and services.